This is the latest recevied weather packets stored in our database for station/object N1TKS. If no packets are shown the sender has not sent any weather packets the latest 10 day(s).
| Time | Temp. | Humidity | Pressure | Rain* | Wind** | Luminosity | Snow |
|---|---|---|---|---|---|---|---|
| 1777471914 | 13.89° C | 69% | 1015.6 hPa | 0 mm | - | - | - |
| 1777471399 | 14.44° C | 67% | 1015.8 hPa | 0 mm | - | - | - |
| 1777471314 | 14.44° C | 67% | 1015.8 hPa | 0 mm | - | - | - |
| 1777471292 | 14.44° C | 68% | 1015.9 hPa | 0 mm | - | - | - |
| 1777471095 | 14.44° C | 68% | 1015.9 hPa | 0 mm | - | - | - |
| 1777471013 | 14.44° C | 68% | 1015.9 hPa | 0 mm | - | - | - |
| 1777470771 | 14.44° C | 67% | 1016 hPa | 0 mm | - | - | - |
| 1777470415 | 15° C | 67% | 1016 hPa | 0 mm | - | - | - |
| 1777469817 | 14.44° C | 65% | 1015.9 hPa | 0 mm | - | - | - |
| 1777469738 | 14.44° C | 67% | 1016 hPa | 0 mm | - | - | - |
| 1777469513 | 14.44° C | 67% | 1016 hPa | 0 mm | - | - | - |
| 1777468018 | 14.44° C | 69% | 1016.1 hPa | 0 mm | - | - | - |
| 1777467422 | 13.89° C | 68% | 1016.4 hPa | 0 mm | - | - | - |
| 1777466924 | 13.33° C | 72% | 1016.8 hPa | 0 mm | - | - | - |
| 1777466217 | 13.33° C | 72% | 1016.8 hPa | 0 mm | - | - | - |
| 1777466109 | 12.78° C | 73% | 1016.7 hPa | 0 mm | - | - | - |
| 1777465918 | 12.78° C | 73% | 1016.7 hPa | 0 mm | - | - | - |
| 1777465615 | 12.78° C | 74% | 1016.7 hPa | 0 mm | - | - | - |
| 1777465016 | 12.22° C | 77% | 1016.5 hPa | 0 mm | - | - | - |
| 1777465013 | 12.22° C | 77% | 1016.8 hPa | 0 mm | - | - | - |
| 1777464714 | 12.22° C | 78% | 1016.5 hPa | 0 mm | - | - | - |
| 1777464415 | 12.22° C | 77% | 1016.5 hPa | 0 mm | - | - | - |
| 1777463814 | 12.22° C | 77% | 1016.8 hPa | 0 mm | - | - | - |
| 1777463580 | 12.22° C | 77% | 1016.7 hPa | 0 mm | - | - | - |
| 1777463514 | 12.22° C | 77% | 1016.7 hPa | 0 mm | - | - | - |
* Rain latest hour (hover to see other rain measurements)
** Current wind speed in m/s (hover to see current wind gust speed)